Location: Peebles
(55.6412°N, 3.1714°W)
Time: 06:10:46
(UTC+01:00)

OBJECT A - Pass Details

Date: 04 July 2022
Orbit: 611 x 632 km, 97.9° (Epoch: 10 August)

Event Time Altitude Azimuth Distance (km) Brightness Sun altitude
Exits shadow 23:05:59 - 160° (SSE) 2,150 ? -6.7°
Reaches altitude 10° 23:06:22 10° 160° (SSE) 1,992 ? -6.8°
Maximum altitude 23:10:42 83° 73° (ENE) 633 ? -7.1°
Drops below altitude 10° 23:15:03 10° 346° (NNW) 1,994 ? -7.4°
Sets 23:17:14 0° 346° (NNW) 2,902 ? -7.5°
